Погода в Шентале

Россия / Самарская область     54°26′01″N   51°27′58″E
темп.,
°C
ветер,
м/с
пор.,
м/с
влажн.,
%
обл.,
%
осадки,
мм/ч
давл.,
гПа
погр.,
м
24 мая, вт
вт2401:00+5з3676100 0.0 1003381
04:00+3зюз358663 0.0 1004141
07:00+5з34750 0.0 1006347
10:00+9юз45551 0.0 1006988
13:00+12юз575076 0.0 10061981
16:00+12юз4553100 0.0 10071492
19:00+12ю246684 0.1 1007154
22:00+8ююв3372100 0.1 100728
25 мая, ср
ср2501:00+6ю337689 0.0 100744
04:00+5юз11875 0.0 100710
07:00+8ссз118358 0.0 1007207
10:00+11зюз237199 0.5 1006663
13:00+8зсз878898 1.2 1008650
16:00+5з4790100 1.3 1010632
19:00+7з467782 0.3 1010826
22:00+4зюз38895 0.4 1011164
26 мая, чт
чт2601:00+3зюз38925 0.0 1012154
04:00+2зюз38955 0.0 1013158
07:00+5з35865 0.0 1014304
10:00+9зюз566777 0.0 10141280
13:00+10зюз5756100 0.1 10141809
16:00+11юз586368 0.2 10151311
19:00+10юз5970100 0.0 1014754
22:00+7ю41179100 0.0 1013255
27 мая, пт
пт2701:00+7ююз51477100 0.0 1013348
04:00+8ю61471100 0.0 1011405
07:00+9ю81775100 0.0 1010569
10:00+11ю91478100 0.1 1008813
13:00+10ю101690100 1.0 10071001
16:00+14ююз9147995 1.6 10061363
19:00+13ююз7128645 1.5 1005776
22:00+11ююз61193100 2.5 1006591
28 мая, сб
сб2801:00+9ю399694 1.8 1006248
04:00+8юз499764 1.8 1007297
07:00+10юз479499 0.0 1009350
10:00+13юз6777100 0.0 1010900
13:00+17юз7960100 0.0 10101659
16:00+18ююз71262100 0.0 10101839
19:00+17ю6136915 0.0 1009666
22:00+15ю9177785 0.0 1009682